Starlink 6151

operational
NORAD ID: 57118 Int'l Des: 2023-090 Owner: SPXS Country: US Constellation: starlink
LEOCIRCULAR

About Starlink 6151

Description loading...

Live Position

Loading 3D Globe...

Upcoming Passes

Altitude History

Altitude vs Time

uPlot chart will show altitude changes over time

Two-Line Element Set

1 57118U 23090T 25348.91668981 .00100301 00000-0 91512-3 0 9992
2 57118 42.9889 308.5008 0010015 161.0053 8.9396 15.66769539 6009
Epoch: Dec 14, 2025 • Age: 10 hours

Current Status

Altitude 383.4 km
Velocity 7.68 km/s
Sub-Earth Point -36.60°S, 53.51°E
Launch Date Jun 23, 2023
Age 2.4 years
Type internet

Technical Details

Classification Payload
Mass 305.00 kg
Dry Mass 290.00 kg
Total Mass 305.00 kg
Length 0.20 m
Diameter 2.80 m
Span 9.00 m
Shape Box + pan
Manufacturer SPXS
Bus Type Starlink
Phase Status In Orbit
Owner/State SPXS/US

Large Constellations

Loading constellations...